Вернуться в каталог

KUIPER-00301

АктивенСвязьLEO
NORAD 68598·PAYLOAD·🇺🇸 United States

Запущен Apr 4, 2026 с Cape Canaveral Space Force Station

Loading…

Ближайшие Пролёты (ближайшие 24 часа)

TLE

СвежийSource: CelesTrak SupGP

Эпоха: Sep 14, 2026, 21:48 UTC

1 68598C 26072AB  26257.90842593  .00001600  00000+0  22720-3 0  2574
2 68598  51.9006 118.3218 0002000 175.3834 288.1220 14.76491349    18

Отслеживайте KUIPER-00301 в реальном времени с AllMySat

Download on the App Store